Vorticity
8 11 11 11 11 11 11 11 10 9 9 8 7 7 8 8 8 8 9 10 10 9 9 9 9 9 9 9 9 9 8 8 8 8 8 8 8 9 8 8 8 7 7 6 6 6 6 7 7 7 7 7 8 8 8 8 7 7 6 5 6 6 6 6 7 7 7 6 6 6 6 5 6 7
10 13 13 13 13 12 11 11 10 10 9 9 8 7 7 8 9 9 8 9 9 9 9 9 9 10 10 10 10 10 9 8 8 8 8 9 9 9 9 9 8 8 8 8 8 8 9 9 9 9 9 8 8 7 7 6 5 4 4 3 3 3 3 4 5 6 7 8 8 7 6 6 6 6
12 12 12 11 11 11 10 9 9 9 9 9 8 8 8 8 8 9 9 9 9 9 9 9 10 11 11 10 10 11 10 10 9 9 9 9 9 9 9 9 9 9 9 9 9 8 7 7 6 6 5 4 4 4 3 3 3 3 2 2 1 0 0 1 3 5 6 7 8 8 8 7 6 6
12 11 10 10 10 10 10 10 10 9 9 9 8 8 9 9 9 9 10 10 10 10 10 11 11 11 10 10 10 10 10 9 9 10 10 9 9 9 9 9 9 9 8 7 6 5 4 4 3 4 4 3 3 2 2 3 2 2 2 1 1 1 2 3 4 5 6 6 6 7 7 7 7 7
10 9 9 9 9 9 10 10 10 10 9 9 9 9 9 9 10 10 10 11 11 10 9 8 7 7 6 6 6 6 7 7 8 8 8 8 9 9 9 8 7 6 5 3 2 3 3 4 4 4 4 4 4 4 5 5 4 4 4 4 4 4 4 4 4 5 5 6 6 5 5 5 5 6
10 9 9 10 10 9 9 9 10 10 9 9 10 10 9 9 9 9 8 6 5 4 4 4 4 4 5 5 5 5 4 4 4 6 7 8 8 7 6 6 4 3 1 1 2 3 4 4 5 5 5 5 5 5 5 5 5 5 5 5 4 4 3 2 2 1 2 3 5 5 5 5 4 4
9 8 9 10 11 9 8 8 8 8 8 9 11 11 11 10 9 6 4 2 3 5 7 8 8 8 7 6 6 5 5 6 7 8 8 8 7 7 6 5 4 3 3 3 3 3 4 4 4 4 4 4 4 4 3 3 2 2 2 2 2 1 1 0 0 0 0 1 2 3 4 4 4 4
9 9 10 10 10 10 9 9 8 8 8 9 9 10 9 7 5 3 5 7 9 10 10 10 9 9 9 9 8 9 10 10 10 9 9 8 8 7 6 5 5 4 4 4 3 2 1 1 1 1 1 1 1 0 -0 -0 0 0 0 1 1 1 1 1 2 2 2 2 2 2 3 3 4 4
9 9 9 10 10 10 11 10 10 10 10 10 9 8 6 5 5 7 9 11 12 12 10 9 8 8 9 9 9 10 10 9 9 8 7 6 5 3 3 2 2 1 1 0 -0 -1 -2 -3 -3 -2 -1 0 0 1 1 1 1 1 2 2 2 3 4 4 4 4 5 5 4 4 4 3 3 4
8 8 8 9 8 9 10 11 11 11 9 7 6 6 6 8 10 11 9 10 12 13 12 11 10 10 9 10 9 8 7 7 6 5 5 4 3 2 2 2 2 2 1 1 1 1 2 2 2 3 4 4 4 4 5 5 5 6 6 7 6 6 6 6 6 6 7 7 7 7 7 7 6 6
7 8 9 9 9 10 10 10 10 10 9 8 9 10 12 14 13 11 9 10 11 12 12 11 10 9 8 6 4 2 1 -0 -0 -0 0 1 1 2 2 3 3 4 4 5 6 6 6 5 5 6 7 7 8 9 8 8 8 8 8 9 9 9 9 9 9 9 9 9 9 9 9 10 10 10
9 9 8 10 11 11 11 11 12 12 13 13 13 13 12 10 9 8 7 7 6 5 4 3 2 2 0 -1 -1 -1 0 1 2 2 3 4 5 5 6 6 5 6 6 6 5 5 4 3 3 5 8 11 13 13 12 12 11 10 10 10 9 9 9 8 8 9 10 11 12 12 13 12 12 11
9 8 8 9 10 11 12 11 10 9 9 9 10 9 7 5 3 3 3 4 5 4 3 2 2 3 4 5 6 7 7 7 7 7 7 7 7 7 7 7 7 6 5 3 2 2 2 2 4 7 10 14 14 14 13 13 12 11 10 10 10 9 9 9 9 9 11 13 13 12 12 11 10 10
10 10 9 9 10 10 8 6 4 3 3 4 6 8 6 0 -4 -3 -1 0 2 4 5 6 6 7 8 8 7 8 8 8 8 8 8 7 8 9 9 8 8 7 5 4 3 3 3 4 6 9 12 13 13 12 12 12 12 11 11 10 10 10 9 9 9 10 11 10 8 7 7 10 11 11
10 11 10 9 8 6 4 3 3 4 5 6 7 8 7 2 -2 -2 -2 -3 -2 -0 2 4 4 4 5 5 5 5 6 6 7 8 8 8 8 8 8 8 7 5 4 5 4 4 4 5 6 9 12 13 12 11 11 11 11 11 11 11 10 9 9 9 8 9 8 4 1 2 3 7 10 13
7 8 7 5 2 -0 0 2 3 4 5 6 6 6 5 3 2 1 -0 -1 -1 -2 -0 3 4 4 4 4 4 5 5 6 6 6 7 8 8 7 7 6 6 4 3 3 3 3 4 5 8 10 11 11 10 10 10 11 11 11 11 10 10 9 9 9 9 9 7 3 -0 0 4 5 6 10
5 6 5 3 -0 -2 -0 1 2 2 1 1 3 4 4 4 4 3 2 1 0 -1 2 5 4 2 1 0 1 3 4 4 5 6 6 7 8 9 8 6 6 6 5 5 4 5 7 10 11 12 12 11 9 8 9 10 11 11 10 10 9 9 9 9 9 7 5 2 0 2 6 6 4 6
4 4 4 3 1 1 0 0 1 2 2 1 0 0 1 2 2 2 2 2 2 2 4 4 1 -4 -6 -6 -3 -0 1 1 3 4 6 7 7 8 8 8 8 7 6 6 7 8 10 12 13 14 13 11 8 8 9 11 12 11 10 10 8 7 6 5 3 2 1 1 3 5 6 6 5 5
4 3 3 3 3 2 1 1 3 3 3 2 1 1 3 4 4 4 3 2 3 5 6 5 0 -3 -4 -4 -2 -0 0 1 2 3 4 7 7 7 8 8 7 7 7 8 9 10 10 11 12 12 11 9 8 9 9 10 10 9 7 5 4 3 2 1 1 1 2 3 4 5 6 8 9 10
6 5 4 3 3 2 1 1 1 2 4 4 3 3 4 4 4 5 5 5 6 7 7 5 0 -2 -2 -1 1 2 3 3 3 3 4 6 6 7 8 8 8 9 8 8 9 9 9 10 11 11 9 7 6 7 7 7 7 5 4 4 3 3 3 3 4 4 6 8 9 12 14 15 16 16
3 1 -1 -1 -1 1 2 1 0 1 2 2 3 4 4 3 4 6 7 8 9 8 5 2 -1 -2 -2 0 2 3 3 3 3 3 3 4 6 7 8 8 8 7 6 7 8 9 10 11 12 10 7 6 7 8 8 8 8 9 10 10 10 11 11 11 12 12 12 13 13 14 14 14 14 15
-1 -1 -1 0 1 1 2 3 4 5 5 6 7 8 8 8 10 12 12 12 12 10 7 3 0 -1 -0 2 2 1 2 2 3 2 2 3 6 8 8 7 7 7 7 7 9 11 14 13 11 9 9 11 13 14 13 14 16 17 17 17 16 16 15 15 14 12 11 9 9 8 8 8 9 9
1 2 2 3 4 5 6 8 8 8 9 10 11 12 13 13 12 10 10 11 11 8 6 4 3 4 4 3 2 2 3 3 2 2 4 5 7 8 8 7 8 8 9 11 14 14 13 12 12 13 13 13 14 15 16 17 15 13 11 10 9 7 7 8 9 9 10 11 12 13 13 14 14 14
1 -0 -1 2 5 7 9 11 12 12 13 12 13 14 12 9 7 7 8 8 5 4 5 5 4 4 3 3 4 4 4 3 4 5 6 7 8 9 9 10 10 10 12 13 13 11 11 13 13 12 11 14 17 20 18 13 7 3 1 1 1 4 8 13 16 18 20 21 21 21 21 22 23 23
1 2 5 9 11 10 9 11 13 14 13 12 13 11 8 6 8 9 7 2 0 2 4 5 6 6 7 7 7 6 5 5 8 9 9 9 9 11 12 11 11 13 14 12 11 12 13 11 9 8 11 15 17 15 11 6 1 -2 -2 3 10 16 19 21 22 23 23 22 23 23 24 24 25 26
8 12 14 14 12 10 9 10 11 10 10 10 10 8 7 7 5 2 -0 -1 1 4 6 8 8 6 6 5 4 6 9 10 11 11 11 11 12 13 13 13 14 14 12 11 12 11 8 5 5 7 10 11 11 10 7 0 -5 -3 6 15 21 23 23 22 22 21 22 22 23 23 24 24 24 25
12 14 12 9 6 6 8 8 7 5 6 8 7 6 5 5 4 4 4 4 6 8 11 11 8 5 4 5 9 12 12 12 12 12 12 12 14 14 14 15 15 12 9 10 9 5 2 2 3 6 11 15 15 10 1 -5 -1 11 21 22 22 23 23 23 24 25 25 26 26 26 25 25 25 26
8 7 4 2 3 7 10 8 4 4 6 6 5 6 7 6 6 5 6 11 15 16 13 8 4 5 7 10 14 16 14 13 12 12 13 14 14 15 14 12 9 8 8 7 3 1 -1 -2 0 8 14 13 7 1 1 9 19 26 24 20 21 24 24 23 23 23 22 21 21 21 21 22 23 25
10 10 8 8 10 11 9 5 4 6 7 6 6 6 8 12 17 19 23 24 19 10 6 7 10 14 19 21 20 16 14 13 14 14 15 16 15 14 12 10 8 7 5 1 -1 -0 -2 -3 5 12 10 4 6 14 22 27 26 22 21 23 24 22 17 16 16 15 14 14 14 14 15 16 19 21
12 13 13 14 14 12 12 13 14 15 15 16 18 20 23 26 27 25 20 13 7 5 8 14 18 19 17 14 12 12 14 14 16 17 17 17 16 13 10 9 6 1 -2 0 1 -1 -4 0 9 13 12 16 25 29 27 23 20 21 24 25 20 14 11 12 12 13 15 16 15 15 14 15 17 19
16 13 13 15 15 17 18 17 18 24 30 30 27 24 21 15 8 4 3 4 8 11 10 10 11 11 14 18 19 20 19 18 17 18 16 13 10 7 5 5 1 -1 3 5 1 -2 1 6 11 15 21 27 27 23 19 20 21 23 22 15 11 10 11 12 14 16 18 19 19 19 18 18 18 18
12 11 14 14 12 11 8 3 2 3 6 11 14 11 4 -1 -1 6 15 19 14 5 4 10 13 11 18 27 25 18 17 18 16 13 10 8 6 5 5 3 1 3 3 -1 0 7 8 7 11 19 23 24 21 18 18 20 22 19 12 8 10 13 16 18 22 23 23 22 22 22 21 19 19 21
-2 2 8 12 12 9 5 7 9 1 -5 5 15 6 -2 4 12 15 19 22 19 8 2 4 6 8 14 16 9 7 13 14 9 5 5 7 7 4 -0 -0 2 0 -6 -6 6 11 3 3 19 29 24 19 20 20 19 20 19 12 6 10 18 23 24 27 29 29 28 26 24 22 20 21 24 26
-9 -9 -3 5 11 14 17 22 25 19 12 16 19 10 4 11 17 14 13 14 15 14 12 10 14 20 20 13 9 15 17 9 3 5 7 5 0 -4 -4 -1 0 -3 -5 1 8 3 0 16 35 33 21 17 20 21 22 20 12 4 8 21 30 29 27 29 31 33 31 26 23 21 21 23 24 20
1 -3 -6 -11 -18 -16 -5 4 12 17 17 12 6 1 -2 -5 -7 -4 6 16 21 22 21 21 20 16 11 9 13 18 18 13 8 2 -3 -6 -7 -3 1 1 -4 -4 3 7 5 3 15 32 36 24 17 18 20 19 17 11 3 4 17 32 33 26 22 25 29 32 31 27 25 24 21 17 12 7
13 12 11 5 -9 -21 -25 -26 -22 -11 -0 1 -4 -10 -11 -5 -2 -4 -1 10 17 17 14 14 14 14 17 19 14 5 1 2 -2 -9 -8 -2 2 3 2 -2 -1 6 9 6 6 15 26 29 25 20 18 19 18 16 12 6 2 9 26 36 29 19 17 21 26 30 28 23 19 15 9 6 5 7
18 17 17 19 16 9 2 -4 -8 -10 -9 -7 -8 -8 2 20 28 23 18 13 8 6 9 11 9 7 7 8 7 3 -1 -3 -4 -2 4 5 2 -1 -1 1 7 11 7 8 19 27 23 19 22 22 18 17 17 13 8 4 4 16 35 36 21 12 15 18 20 20 15 9 7 5 5 7 9 10
16 16 16 18 21 23 24 23 22 21 16 7 -2 -4 2 7 7 13 23 23 15 9 5 -5 -11 -11 -7 -1 7 9 5 2 3 3 2 -0 -1 2 4 6 8 11 15 24 31 25 15 17 25 23 17 17 15 9 5 4 8 23 38 32 15 11 16 17 14 12 8 5 5 6 7 9 10 10
17 16 16 15 16 19 22 25 27 28 28 24 16 8 -1 -10 -12 -4 1 1 8 15 4 -15 -21 -15 -10 -5 1 3 2 4 4 2 3 7 9 7 4 6 13 22 27 27 20 14 16 24 26 19 16 16 12 6 4 6 13 26 34 26 15 13 15 14 13 12 8 6 7 7 8 9 10 11
31 32 32 34 36 40 48 56 57 50 43 37 33 28 15 -2 -7 1 1 -7 -4 5 1 -8 -10 -8 -6 0 7 9 8 6 5 8 13 13 7 2 4 15 25 26 19 13 14 21 29 30 22 15 15 14 9 4 4 9 19 27 28 22 18 15 13 12 11 9 8 10 12 11 12 12 12 12
33 35 35 34 30 25 25 27 26 24 26 27 25 26 23 10 -1 2 7 4 0 1 3 5 9 11 13 14 14 11 10 10 12 14 10 4 2 7 16 25 25 14 6 13 26 33 32 26 18 14 14 12 7 4 5 13 23 25 20 18 19 17 15 14 12 10 13 16 15 14 13 12 12 12
36 37 39 35 20 2 -5 -5 -7 -9 -1 10 12 13 19 22 21 19 18 18 17 16 15 15 16 16 14 12 11 12 13 12 8 4 2 7 15 20 23 22 12 1 6 24 34 32 27 21 14 12 12 10 6 4 7 16 25 23 15 12 15 16 17 17 16 16 17 15 14 13 13 13 14 15
25 17 22 33 33 20 6 -4 -12 -15 -10 -1 4 6 11 17 21 20 16 15 16 14 12 12 12 13 12 12 13 14 13 10 9 11 17 22 21 18 15 9 -0 1 17 33 34 28 23 16 10 11 12 8 4 5 8 17 25 24 14 9 10 14 18 20 19 17 15 13 12 12 11 11 13 14
27 12 3 7 19 29 32 26 18 16 19 23 25 28 28 24 22 23 26 28 28 28 29 30 28 27 27 25 22 20 21 21 21 21 18 13 9 9 7 1 0 14 32 37 31 25 19 11 9 11 10 5 5 6 8 15 25 27 21 12 9 11 15 18 17 14 12 10 9 9 8 9 12 15
41 37 25 14 13 22 34 40 38 34 35 39 42 42 38 33 28 23 19 21 26 31 33 33 32 31 28 24 21 19 18 16 13 10 6 5 7 5 0 1 15 32 39 34 28 21 13 9 10 10 7 5 7 7 5 10 21 28 27 20 12 10 12 13 12 10 9 7 7 7 7 9 14 17
Height
5787 5787 5787 5787 5788 5788 5789 5789 5790 5790 5791 5792 5792 5792 5792 5792 5793 5793 5792 5792 5792 5792 5792 5791 5791 5791 5791 5791 5790 5790 5790 5790 5790 5790 5790 5790 5790 5790 5790 5790 5789 5789 5789 5789 5789 5789 5788 5788 5788 5787 5787 5787 5786 5786 5786 5785 5785 5784 5784 5783 5782 5781 5781 5780 5779 5779 5778 5778 5777 5777 5776 5776 5776 5775
5785 5785 5785 5785 5785 5786 5787 5787 5788 5789 5789 5790 5790 5790 5790 5790 5790 5790 5790 5790 5790 5790 5790 5789 5789 5789 5789 5789 5789 5789 5789 5789 5788 5788 5788 5788 5788 5788 5788 5788 5788 5788 5788 5788 5787 5787 5787 5786 5786 5786 5785 5785 5784 5784 5784 5783 5783 5782 5782 5781 5780 5779 5778 5777 5776 5776 5775 5774 5774 5773 5773 5773 5772 5772
5783 5783 5783 5783 5784 5784 5785 5785 5786 5786 5787 5787 5788 5788 5788 5788 5788 5788 5788 5788 5788 5788 5788 5787 5787 5787 5787 5787 5787 5787 5787 5787 5787 5787 5787 5787 5787 5787 5787 5786 5786 5786 5786 5786 5786 5786 5785 5785 5784 5784 5783 5783 5782 5782 5781 5780 5780 5779 5779 5778 5777 5777 5776 5775 5774 5773 5772 5771 5771 5770 5769 5769 5768 5768
5781 5781 5781 5782 5782 5782 5783 5783 5784 5784 5785 5785 5785 5786 5786 5786 5786 5786 5786 5786 5786 5786 5786 5786 5786 5786 5786 5785 5785 5785 5785 5785 5785 5785 5785 5785 5785 5785 5785 5785 5784 5784 5784 5784 5784 5784 5783 5783 5782 5782 5781 5780 5780 5779 5779 5778 5777 5776 5775 5775 5774 5773 5773 5772 5771 5770 5769 5769 5768 5767 5766 5765 5765 5764
5779 5780 5780 5780 5780 5781 5781 5781 5781 5781 5782 5782 5783 5783 5783 5784 5784 5784 5784 5784 5784 5784 5784 5784 5784 5784 5784 5784 5784 5784 5783 5783 5783 5783 5783 5783 5783 5783 5783 5783 5782 5782 5782 5782 5781 5781 5781 5780 5780 5779 5779 5778 5777 5777 5776 5775 5774 5773 5772 5771 5771 5770 5769 5769 5768 5767 5767 5766 5765 5764 5763 5762 5761 5760
5777 5778 5778 5778 5779 5779 5779 5779 5779 5779 5779 5780 5780 5780 5781 5781 5782 5782 5782 5782 5782 5782 5782 5781 5781 5781 5782 5782 5782 5782 5781 5781 5781 5781 5781 5781 5781 5781 5781 5780 5780 5780 5780 5779 5779 5778 5778 5778 5777 5777 5776 5775 5775 5774 5773 5772 5771 5770 5769 5768 5767 5766 5765 5765 5764 5763 5762 5762 5761 5760 5759 5758 5757 5755
5775 5776 5776 5777 5777 5777 5777 5777 5777 5777 5777 5777 5778 5778 5778 5779 5779 5780 5780 5780 5780 5780 5780 5779 5779 5779 5780 5780 5780 5780 5780 5779 5780 5779 5779 5779 5779 5779 5778 5778 5778 5777 5777 5777 5776 5776 5775 5775 5775 5774 5773 5773 5772 5771 5770 5769 5768 5767 5766 5765 5764 5762 5761 5760 5759 5758 5757 5757 5756 5755 5754 5753 5751 5750
5773 5774 5774 5774 5775 5775 5775 5775 5776 5776 5776 5776 5776 5776 5776 5776 5777 5777 5778 5778 5778 5778 5778 5777 5777 5777 5777 5777 5778 5778 5777 5777 5777 5777 5777 5777 5777 5776 5776 5776 5775 5775 5775 5774 5774 5773 5773 5773 5772 5771 5770 5769 5768 5768 5766 5765 5764 5763 5761 5760 5758 5757 5756 5755 5754 5753 5752 5751 5750 5749 5748 5747 5745 5744
5771 5771 5772 5772 5772 5772 5773 5773 5774 5774 5774 5774 5774 5774 5774 5775 5775 5775 5776 5776 5776 5775 5775 5775 5775 5775 5775 5775 5775 5775 5775 5775 5775 5775 5775 5775 5774 5774 5773 5773 5772 5772 5771 5771 5770 5770 5769 5769 5768 5767 5766 5765 5764 5763 5761 5760 5758 5757 5755 5754 5753 5751 5750 5749 5747 5746 5745 5744 5743 5742 5741 5740 5739 5738
5769 5769 5769 5769 5769 5770 5770 5770 5771 5772 5772 5773 5773 5773 5773 5773 5773 5773 5773 5773 5773 5773 5772 5772 5773 5773 5773 5773 5773 5773 5773 5773 5773 5772 5772 5771 5771 5770 5770 5769 5769 5768 5767 5766 5766 5765 5765 5764 5763 5761 5761 5760 5759 5757 5756 5754 5752 5750 5749 5748 5746 5745 5744 5742 5741 5739 5738 5737 5736 5735 5734 5733 5732 5731
5766 5766 5767 5767 5767 5767 5768 5768 5768 5769 5770 5770 5771 5771 5772 5772 5772 5772 5772 5771 5771 5770 5770 5770 5770 5771 5771 5771 5771 5771 5770 5770 5769 5769 5769 5768 5767 5766 5766 5765 5764 5763 5762 5761 5761 5760 5759 5758 5757 5756 5755 5754 5753 5751 5750 5748 5746 5745 5743 5742 5740 5739 5737 5736 5735 5733 5731 5730 5728 5727 5726 5725 5724 5723
5764 5764 5764 5765 5765 5765 5766 5766 5767 5767 5768 5769 5769 5770 5770 5770 5770 5770 5770 5769 5769 5768 5768 5768 5768 5768 5768 5768 5768 5768 5768 5767 5766 5766 5765 5764 5763 5763 5762 5760 5759 5758 5757 5756 5755 5754 5754 5753 5751 5750 5749 5748 5747 5745 5743 5741 5740 5738 5737 5736 5734 5733 5731 5730 5728 5727 5725 5723 5722 5720 5719 5718 5716 5715
5761 5761 5762 5762 5763 5763 5764 5764 5765 5765 5766 5766 5767 5767 5767 5767 5767 5767 5767 5767 5767 5766 5766 5766 5766 5765 5765 5765 5764 5764 5764 5763 5763 5762 5761 5760 5759 5758 5757 5756 5755 5753 5752 5751 5750 5749 5748 5747 5746 5744 5743 5741 5740 5738 5736 5734 5733 5732 5730 5729 5727 5726 5724 5723 5721 5720 5718 5717 5715 5714 5712 5711 5709 5708
5758 5759 5759 5760 5760 5761 5761 5762 5762 5762 5763 5763 5763 5764 5764 5764 5763 5763 5763 5763 5763 5763 5763 5762 5762 5762 5761 5761 5760 5760 5759 5759 5758 5757 5757 5756 5755 5754 5753 5751 5750 5748 5747 5747 5745 5744 5743 5741 5740 5738 5736 5735 5733 5731 5729 5727 5726 5724 5723 5721 5720 5718 5717 5716 5714 5713 5711 5710 5708 5707 5705 5704 5702 5701
5755 5756 5756 5757 5757 5758 5758 5758 5759 5759 5759 5759 5760 5760 5760 5760 5760 5759 5759 5759 5759 5758 5758 5758 5758 5758 5757 5757 5757 5756 5755 5754 5754 5753 5752 5751 5750 5749 5748 5747 5745 5744 5742 5741 5740 5738 5737 5735 5734 5732 5730 5728 5726 5724 5722 5720 5719 5717 5716 5714 5713 5711 5710 5708 5707 5706 5704 5703 5702 5700 5699 5697 5696 5694
5752 5753 5753 5753 5754 5754 5755 5755 5755 5755 5756 5756 5756 5755 5755 5755 5755 5755 5755 5754 5754 5754 5753 5753 5753 5753 5753 5752 5752 5751 5751 5750 5749 5748 5747 5746 5745 5744 5743 5742 5740 5739 5737 5735 5734 5732 5730 5729 5727 5726 5724 5721 5719 5717 5715 5713 5712 5710 5708 5707 5705 5704 5702 5701 5700 5698 5697 5696 5694 5693 5691 5690 5689 5687
5749 5750 5750 5750 5751 5751 5751 5752 5752 5752 5752 5752 5751 5751 5751 5750 5750 5750 5749 5749 5749 5748 5748 5748 5748 5748 5748 5747 5747 5746 5746 5745 5744 5743 5742 5741 5740 5739 5738 5736 5734 5733 5731 5729 5728 5726 5724 5723 5721 5719 5717 5715 5712 5710 5708 5706 5704 5703 5701 5699 5698 5696 5695 5693 5692 5691 5689 5688 5686 5685 5683 5682 5681 5679
5746 5747 5747 5747 5747 5747 5748 5748 5748 5748 5748 5747 5747 5747 5746 5745 5745 5744 5744 5744 5743 5743 5743 5743 5743 5742 5742 5741 5741 5740 5740 5739 5738 5737 5736 5736 5734 5733 5731 5730 5728 5726 5725 5723 5721 5719 5718 5716 5713 5711 5709 5707 5705 5703 5701 5699 5697 5695 5693 5691 5690 5688 5687 5685 5684 5683 5681 5679 5677 5676 5674 5673 5672 5671
5743 5743 5743 5744 5744 5744 5744 5744 5744 5744 5743 5743 5743 5742 5742 5741 5741 5740 5739 5739 5738 5738 5738 5737 5737 5736 5736 5735 5734 5734 5733 5732 5731 5730 5729 5729 5727 5726 5724 5723 5721 5719 5717 5716 5714 5712 5710 5708 5706 5704 5702 5700 5698 5695 5693 5692 5690 5688 5686 5684 5682 5680 5678 5677 5676 5674 5673 5671 5669 5667 5666 5664 5662 5661
5738 5739 5739 5739 5739 5739 5740 5740 5740 5739 5739 5738 5738 5737 5737 5736 5735 5735 5734 5734 5733 5733 5732 5731 5730 5730 5729 5728 5728 5727 5726 5725 5724 5723 5722 5721 5720 5719 5717 5716 5714 5712 5711 5709 5706 5705 5703 5701 5699 5698 5695 5694 5692 5689 5686 5684 5682 5680 5677 5675 5673 5671 5669 5668 5667 5665 5663 5662 5660 5658 5656 5654 5653 5651
5733 5733 5733 5734 5734 5734 5734 5734 5734 5734 5733 5733 5732 5732 5731 5730 5730 5729 5729 5728 5728 5727 5726 5725 5724 5724 5723 5722 5721 5720 5719 5718 5717 5716 5714 5713 5713 5711 5710 5708 5707 5705 5703 5701 5699 5697 5696 5694 5693 5691 5689 5687 5685 5682 5679 5676 5673 5671 5668 5666 5663 5661 5660 5658 5657 5655 5654 5652 5650 5648 5646 5644 5643 5642
5727 5727 5727 5727 5728 5728 5728 5727 5727 5727 5727 5726 5726 5725 5724 5724 5724 5724 5723 5722 5722 5721 5720 5719 5718 5717 5716 5716 5715 5714 5713 5711 5710 5709 5707 5706 5705 5704 5702 5701 5699 5698 5696 5694 5692 5690 5689 5687 5685 5684 5683 5681 5678 5675 5671 5668 5665 5661 5659 5656 5654 5652 5650 5649 5647 5646 5644 5642 5640 5637 5635 5633 5632 5632
5721 5721 5720 5720 5720 5721 5720 5720 5720 5720 5720 5719 5719 5718 5718 5717 5717 5717 5717 5716 5715 5715 5714 5713 5712 5711 5710 5709 5708 5707 5705 5704 5703 5702 5700 5699 5697 5696 5695 5693 5692 5690 5689 5687 5685 5683 5682 5680 5678 5677 5675 5675 5672 5669 5665 5662 5658 5654 5650 5648 5645 5643 5641 5640 5638 5635 5633 5631 5628 5626 5623 5621 5620 5620
5714 5714 5714 5713 5713 5713 5713 5713 5712 5712 5712 5712 5711 5711 5711 5710 5710 5710 5710 5709 5709 5708 5707 5706 5705 5703 5702 5701 5700 5699 5698 5697 5696 5695 5693 5691 5690 5689 5688 5686 5685 5683 5682 5680 5679 5677 5675 5674 5672 5670 5668 5666 5665 5662 5659 5655 5651 5646 5642 5639 5637 5635 5632 5629 5627 5624 5621 5619 5616 5614 5612 5610 5608 5608
5708 5707 5707 5706 5706 5706 5706 5705 5705 5705 5704 5704 5704 5703 5703 5702 5703 5703 5702 5702 5701 5700 5699 5698 5697 5695 5694 5693 5692 5692 5691 5690 5689 5687 5686 5684 5683 5682 5681 5679 5678 5676 5675 5674 5672 5671 5669 5667 5665 5663 5661 5658 5656 5654 5652 5648 5643 5639 5634 5630 5628 5625 5622 5619 5617 5613 5611 5608 5606 5604 5602 5599 5597 5596
5701 5700 5700 5699 5699 5699 5699 5698 5698 5697 5697 5697 5696 5695 5694 5694 5695 5694 5694 5694 5693 5692 5691 5690 5688 5687 5686 5685 5685 5684 5684 5683 5682 5680 5678 5677 5676 5675 5674 5672 5671 5669 5668 5667 5665 5664 5662 5660 5658 5656 5654 5651 5649 5646 5644 5641 5637 5631 5625 5621 5618 5615 5613 5610 5608 5605 5602 5599 5597 5594 5592 5590 5588 5586
5693 5693 5692 5692 5692 5692 5691 5691 5691 5690 5690 5689 5687 5686 5686 5686 5686 5686 5685 5685 5684 5683 5682 5681 5680 5679 5678 5678 5677 5677 5676 5675 5674 5672 5671 5670 5669 5668 5667 5665 5664 5663 5661 5660 5659 5657 5656 5654 5651 5649 5646 5644 5642 5639 5636 5633 5629 5624 5618 5613 5609 5606 5603 5602 5600 5597 5594 5591 5588 5586 5583 5581 5579 5578
5685 5685 5685 5684 5684 5684 5684 5683 5683 5682 5682 5680 5679 5677 5677 5677 5677 5676 5676 5675 5674 5674 5673 5672 5671 5671 5671 5670 5670 5669 5668 5667 5666 5665 5664 5663 5663 5662 5661 5659 5658 5657 5656 5654 5653 5651 5649 5647 5644 5642 5639 5636 5634 5631 5627 5624 5620 5615 5611 5607 5602 5597 5595 5593 5592 5589 5587 5584 5581 5578 5576 5574 5572 5571
5677 5677 5676 5676 5676 5676 5676 5676 5675 5674 5673 5671 5670 5669 5669 5668 5667 5667 5666 5666 5665 5665 5664 5664 5663 5663 5663 5662 5662 5661 5661 5660 5659 5658 5657 5657 5657 5656 5655 5654 5653 5651 5650 5648 5646 5644 5642 5640 5638 5636 5633 5629 5625 5622 5619 5616 5612 5607 5603 5600 5596 5591 5588 5586 5585 5582 5580 5577 5574 5572 5570 5568 5567 5566
5669 5669 5668 5668 5668 5668 5668 5667 5667 5666 5665 5663 5662 5661 5660 5659 5658 5658 5658 5657 5657 5657 5656 5656 5656 5655 5655 5655 5654 5654 5653 5652 5652 5652 5651 5651 5651 5650 5649 5648 5647 5645 5643 5640 5639 5638 5637 5635 5633 5630 5626 5622 5617 5613 5611 5608 5604 5600 5596 5593 5590 5586 5583 5580 5578 5576 5574 5571 5568 5566 5564 5563 5562 5562
5661 5661 5660 5660 5660 5660 5659 5659 5659 5659 5658 5655 5653 5652 5652 5651 5651 5650 5650 5650 5649 5649 5649 5648 5648 5648 5648 5647 5647 5646 5646 5646 5646 5646 5646 5645 5645 5644 5643 5642 5640 5638 5635 5634 5634 5633 5631 5629 5626 5622 5618 5614 5610 5607 5604 5600 5597 5594 5590 5586 5584 5581 5577 5574 5571 5569 5567 5565 5562 5560 5559 5558 5558 5558
5653 5652 5652 5652 5652 5651 5651 5651 5652 5653 5651 5647 5645 5644 5644 5644 5644 5643 5643 5643 5642 5642 5642 5641 5642 5641 5641 5640 5639 5639 5639 5639 5640 5640 5640 5640 5639 5639 5638 5636 5634 5632 5630 5629 5628 5626 5624 5622 5619 5615 5611 5607 5604 5602 5598 5594 5591 5589 5585 5581 5578 5574 5570 5567 5565 5563 5561 5559 5557 5555 5554 5554 5554 5553
5644 5644 5643 5644 5644 5643 5643 5644 5644 5645 5643 5640 5638 5638 5638 5637 5637 5636 5636 5636 5635 5635 5635 5635 5635 5635 5634 5633 5633 5633 5633 5634 5634 5634 5634 5634 5634 5632 5631 5630 5628 5628 5626 5624 5622 5619 5616 5613 5611 5608 5604 5601 5598 5596 5594 5590 5587 5584 5581 5577 5572 5567 5564 5561 5559 5557 5555 5554 5552 5551 5549 5550 5550 5550
5635 5635 5635 5635 5635 5635 5635 5636 5635 5635 5634 5633 5631 5631 5631 5631 5631 5630 5630 5629 5628 5628 5629 5629 5628 5627 5627 5626 5626 5626 5627 5628 5628 5629 5629 5628 5627 5626 5625 5624 5623 5623 5622 5619 5616 5613 5610 5606 5603 5601 5598 5595 5592 5591 5589 5586 5583 5580 5576 5571 5566 5562 5558 5556 5554 5552 5551 5550 5549 5547 5546 5546 5547 5547
5624 5624 5624 5626 5626 5625 5625 5626 5625 5625 5625 5624 5623 5623 5623 5624 5624 5624 5623 5622 5621 5622 5622 5622 5620 5619 5619 5619 5619 5620 5621 5621 5622 5622 5622 5621 5620 5619 5619 5619 5618 5617 5615 5613 5610 5607 5604 5601 5598 5595 5593 5590 5587 5585 5584 5582 5578 5575 5570 5566 5562 5558 5555 5552 5550 5549 5548 5547 5546 5545 5544 5544 5544 5544
5612 5612 5613 5614 5616 5615 5614 5614 5615 5615 5615 5615 5615 5615 5615 5615 5615 5616 5616 5616 5615 5614 5614 5613 5612 5613 5613 5613 5613 5614 5615 5615 5616 5616 5615 5614 5614 5613 5613 5613 5612 5611 5608 5605 5603 5601 5599 5597 5594 5591 5589 5586 5583 5581 5580 5577 5574 5570 5565 5561 5558 5555 5552 5550 5548 5547 5546 5545 5544 5544 5543 5543 5542 5541
5599 5600 5601 5602 5603 5604 5604 5603 5604 5606 5607 5607 5607 5607 5608 5609 5607 5607 5608 5608 5608 5607 5606 5606 5606 5607 5607 5607 5607 5608 5609 5609 5609 5608 5608 5608 5608 5607 5607 5606 5605 5604 5601 5598 5596 5595 5594 5592 5590 5587 5585 5583 5581 5578 5576 5573 5569 5565 5561 5558 5555 5553 5551 5549 5547 5546 5544 5543 5543 5542 5542 5541 5540 5539
5586 5588 5589 5590 5590 5592 5592 5593 5594 5596 5597 5598 5598 5599 5601 5601 5601 5600 5600 5599 5599 5599 5599 5599 5599 5599 5600 5600 5601 5602 5602 5602 5601 5601 5601 5601 5601 5601 5600 5600 5598 5596 5594 5591 5590 5589 5589 5587 5585 5583 5581 5579 5578 5575 5572 5569 5565 5561 5558 5555 5553 5551 5549 5548 5546 5544 5543 5542 5541 5541 5540 5538 5537 5536
5573 5575 5577 5578 5579 5580 5581 5582 5584 5587 5588 5588 5589 5589 5590 5592 5593 5592 5591 5590 5590 5590 5590 5590 5590 5591 5592 5593 5594 5594 5594 5594 5594 5594 5594 5595 5594 5594 5593 5593 5591 5589 5587 5586 5585 5584 5583 5582 5580 5578 5577 5576 5574 5572 5569 5565 5561 5557 5554 5552 5550 5549 5547 5546 5544 5543 5542 5541 5540 5538 5537 5536 5534 5533
5562 5564 5566 5567 5568 5570 5571 5572 5575 5576 5577 5578 5578 5578 5580 5583 5584 5582 5581 5581 5581 5581 5581 5581 5581 5583 5584 5585 5585 5585 5585 5586 5586 5587 5588 5587 5587 5587 5586 5586 5585 5584 5582 5581 5579 5578 5577 5576 5575 5574 5573 5572 5571 5568 5565 5562 5558 5555 5551 5549 5547 5546 5545 5543 5542 5541 5540 5539 5537 5536 5534 5533 5532 5530
5553 5555 5556 5558 5559 5561 5562 5563 5564 5565 5566 5567 5568 5569 5571 5575 5574 5572 5572 5573 5573 5573 5573 5574 5575 5576 5578 5578 5578 5578 5578 5579 5580 5580 5581 5580 5580 5580 5581 5580 5580 5579 5578 5576 5574 5573 5572 5572 5571 5571 5570 5569 5567 5565 5562 5559 5555 5552 5549 5547 5545 5543 5542 5541 5540 5539 5538 5536 5535 5534 5532 5531 5530 5528
5546 5547 5547 5549 5551 5553 5554 5554 5555 5556 5557 5559 5560 5562 5564 5566 5566 5565 5565 5565 5566 5566 5567 5568 5569 5570 5570 5570 5571 5571 5572 5573 5573 5574 5574 5575 5575 5575 5575 5575 5574 5574 5573 5571 5569 5568 5567 5567 5567 5567 5567 5566 5564 5561 5559 5556 5553 5550 5547 5545 5543 5541 5540 5539 5538 5537 5535 5534 5533 5532 5530 5529 5528 5526
5540 5539 5539 5540 5543 5545 5546 5547 5548 5549 5550 5552 5554 5555 5557 5558 5558 5559 5559 5559 5559 5561 5562 5562 5563 5563 5563 5564 5565 5566 5566 5567 5568 5568 5569 5570 5570 5570 5569 5569 5569 5568 5567 5566 5565 5564 5564 5564 5564 5564 5564 5562 5561 5559 5556 5554 5550 5548 5546 5544 5542 5540 5538 5537 5536 5535 5534 5533 5532 5530 5529 5528 5526 5524
5532 5532 5532 5534 5536 5538 5540 5542 5543 5544 5545 5547 5548 5550 5551 5552 5552 5552 5553 5553 5553 5554 5555 5556 5557 5558 5558 5559 5560 5560 5561 5562 5562 5563 5564 5564 5564 5564 5563 5563 5563 5562 5561 5560 5560 5560 5560 5561 5561 5561 5560 5559 5558 5556 5554 5552 5549 5546 5544 5542 5540 5539 5537 5536 5535 5534 5533 5531 5530 5529 5528 5526 5524 5522
5525 5525 5527 5529 5532 5534 5535 5537 5538 5540 5541 5542 5543 5544 5546 5546 5547 5547 5548 5548 5549 5549 5550 5551 5552 5552 5553 5554 5555 5555 5556 5557 5557 5558 5558 5559 5559 5558 5558 5558 5557 5556 5556 5556 5556 5556 5557 5558 5558 5558 5557 5556 5555 5554 5552 5550 5547 5544 5542 5540 5538 5537 5536 5535 5534 5532 5531 5530 5529 5528 5526 5524 5522 5521